Regional Weather Roundup
Issued by NWS

Home | Current Version | Previous Version | Text Only | Print | Product List | Glossary On
Versions: 1 2 3 4 5 6 7 8 9 10 11 12 13 14 15 16 17 18 19 20 21 22 23 24 25 26 27 28 29 30 31 32 33 34 35 36 37 38 39 40 41 42 43 44 45 46 47 48 49 50
000
ASUS43 KDTX 162010
RWRMI
MICHIGAN HOURLY REGIONAL WEATHER ROUNDUP
NATIONAL WEATHER SERVICE DETROIT/PONTIAC MI
400 PM EDT TUE SEP 16 2014

NOTE: "FAIR" INDICATES FEW OR NO CLOUDS BELOW 12,000 FEET WITH NO
SIGNIFICANT WEATHER AND/OR OBSTRUCTION TO VISIBILITY.

MIZ047>049-052>055-059>063-066>070-074>076-081>083-162100-
SOUTHEAST LOWER MICHIGAN

CITY           SKY/WX    TMP DP  RH WIND       PRES   REMARKS
ADRIAN         SUNNY     66  43  43 N6        30.11F
ALMA           CLOUDY    64  44  48 W9        30.09F
ANN ARBOR      PTSUNNY   66  43  43 W8        30.10F
BAD AXE        MOSUNNY   63  47  55 W12G17    30.08F
CARO           MOSUNNY   62  46  54 SW7       30.08F
DETROIT CITY   SUNNY     67  40  37 W5        30.09F
DETROIT        MOSUNNY   65  42  43 SW7       30.10F
FLINT          PTSUNNY   64  44  48 W9        30.09F
GROSSE ILE     MOSUNNY   63  48  59 S8        30.09S
HILLSDALE      SUNNY     66  40  38 SW3       30.11F
HOWELL         PTSUNNY   63  42  47 NW6       30.10S

CITY           SKY/WX    TMP DP  RH WIND       PRES   REMARKS
JACKSON        MOSUNNY   65  42  43 VRB3      30.11F
LAMBERTVILLE   MOSUNNY   66  45  45 W3        30.11F
LANSING        MOSUNNY   63  44  50 W13       30.10F
LAPEER         FAIR      62  42  49 W5        30.10S
MASON          CLOUDY    63  46  54 N5        30.10F
MONROE         MOSUNNY   64  43  45 CALM      30.09S
MT. CLEMENS    MOSUNNY   63  45  52 S9        30.08F
PONTIAC        MOSUNNY   64  42  44 W10       30.09F
PORT HOPE        N/A     63  45  51 VRB5      30.06F
PORT HURON     PTSUNNY   63  45  51 NW5       30.09F
TRI CITIES     MOSUNNY   66  45  46 W15G21    30.09F
TROY           MOSUNNY   67  38  35 W5        30.11S
SAGINAW HB     MOSUNNY   63  46  55 W9        30.08F
$$
MIZ043>046-050>051-056>058-064>065-071>073-077>080-162100-
SOUTHWEST LOWER MICHIGAN

CITY           SKY/WX    TMP DP  RH WIND       PRES   REMARKS
BATTLE CREEK   PTSUNNY   63  45  51 W8        30.12F
BENTON HARBOR  SUNNY     61  46  57 NW9G16    30.14F
BIG RAPIDS     MOSUNNY   60  45  57 W9G16     30.09F
COLDWATER      PTSUNNY   67  43  41 W6        30.11F
FREMONT        FAIR      62  38  40 SW8       30.11S
HOLLAND        SUNNY     63  44  50 W9        30.14F
GRAND RAPIDS   MOSUNNY   64  44  48 W12       30.12F
IONIA          MOCLDY    64  45  48 W9        30.09F
KALAMAZOO      PTSUNNY   65  46  50 NW9G18    30.12F
LUDINGTON      SUNNY     59  38  45 NW6       30.12F
MARSHALL       PTSUNNY   65  44  48 W6        30.11S
MOUNT PLEASANT PTSUNNY   62  43  50 W5        30.08F
MUSKEGON       MOSUNNY   61  40  45 W10       30.13F
SOUTH HAVEN    SUNNY     63  47  57 W10       30.14S
$$
MIZ016>042-162100-
NORTHERN LOWER MICHIGAN

CITY           SKY/WX    TMP DP  RH WIND       PRES   REMARKS
ALPENA         MOSUNNY   62  41  46 SW8       30.03F
BEAVER ISLAND  SUNNY     61  45  54 SW14G23   30.05R
BELLAIRE       SUNNY     63  37  39 W6        30.07F
CADILLAC       MOSUNNY   61  42  50 W10       30.08F
CHARLEVOIX     SUNNY     61  41  47 SW9G17    30.08F
FRANKFORT      SUNNY     62  43  49 SW9G16    30.10S
GAYLORD        SUNNY     59  36  42 W8        30.06F
GRAYLING       SUNNY     62  37  38 NW6       30.07F
HARBOR SPRINGS SUNNY     62  41  45 W8        30.04F
HOUGHTON LAKE  SUNNY     61  40  45 W10       30.07F
MANISTEE       SUNNY     59  36  41 SW9       30.11F
OSCODA         MOSUNNY   62  43  49 W5        30.04F
PELLSTON       SUNNY     62  40  44 SW13      30.04F
ROGERS CITY    SUNNY     64  39  41 W9        30.04F
TRAVERSE CITY  MOSUNNY   63  38  39 W12       30.07F
$$
MIZ007>008-015-162100-
EASTERN UPPER MICHIGAN

CITY           SKY/WX    TMP DP  RH WIND       PRES   REMARKS
KINROSS        SUNNY     63  41  45 W12G17    30.00S
MACKINAC ISLAN SUNNY     60  42  51 SW15G24   30.02S
NEWBERRY       MOSUNNY   62  44  51 SW15G21   29.99S
S. S. MARIE    SUNNY     62  40  44 SW15G21   29.98S
MUNISING         N/A     70  42  36 VRB6      29.97F
$$
MIZ004>006-011>014-085-162100-
CENTRAL UPPER MICHIGAN

CITY           SKY/WX    TMP DP  RH WIND       PRES   REMARKS
MANISTIQUE     SUNNY     62  49  63 SW14G22   30.01S
ESCANABA       MOSUNNY   66  41  39 W12G21    30.00F
MENOMINEE      SUNNY     66  43  42 W9G20     30.04S
SAWYER-GWINN   MOSUNNY   66  39  37 W9G22     29.98F
$$
MIZ001>003-009>011-084-162100-
WESTERN UPPER MICHIGAN

CITY           SKY/WX    TMP DP  RH WIND       PRES   REMARKS
IRON MOUNTAIN  SUNNY     67  39  35 W10G22    30.01F
HOUGHTON       CLOUDY    58  40  51 W14G24    29.95F
COPPER HARBOR    N/A     57  41  55 NW13G22   29.95S
IRONWOOD       MOSUNNY   66  43  42 SW15G22   29.99F
$$

ABBREVIATIONS USED IN REMARKS
   TC - TEMPERATURE IN CELSIUS
  WCI - WIND CHILL INDEX
   HX - HEAT INDEX
  VSB - VISIBILITY



USA.gov is the U.S. government's official web portal to all federal, state and local government web resources and services.